Temperature
23 22 22 23 28 29 27 27 27 27 26 25 24 25 25 24 24 22 19 19 18 18 18 18 18 18 18 18 18 18 18 18 18 18 18 18 18 18 18 18 18 18 18 18 18 18 18 18 18
22 22 23 27 29 28 27 27 27 26 25 24 24 24 24 23 21 20 19 18 18 18 18 17 18 18 18 18 18 18 18 18 18 18 18 18 18 18 18 18 18 18 18 18 18 18 18 18 18
23 23 27 30 29 28 27 27 26 26 25 25 24 24 23 22 21 20 19 18 18 18 18 18 18 18 18 18 18 18 18 18 18 18 18 18 18 18 18 18 18 18 18 18 18 18 18 18 18
23 26 29 30 28 28 28 27 27 26 25 25 25 24 22 20 20 20 19 19 19 18 18 18 18 18 18 18 18 18 18 18 18 18 18 18 18 18 18 18 18 18 18 18 18 18 18 18 18
25 29 30 29 28 28 28 27 27 27 26 25 25 24 22 20 20 19 19 19 19 19 18 18 18 18 18 18 18 18 18 18 18 18 18 18 18 18 18 18 18 18 18 18 18 18 18 18 18
29 31 30 29 28 28 28 27 27 26 25 25 24 24 21 20 20 19 19 19 19 19 19 18 18 18 18 18 18 18 18 18 18 18 18 18 18 18 18 18 18 18 18 18 18 18 18 18 18
30 32 30 29 28 28 28 27 27 27 26 25 24 24 22 20 20 19 19 19 19 19 19 18 18 18 18 18 18 18 18 18 18 18 18 18 18 18 18 18 18 18 18 18 18 18 18 18 18
30 32 31 30 29 28 28 27 26 26 25 24 24 24 22 20 20 20 19 19 19 19 19 18 18 18 18 18 18 18 18 18 18 18 18 18 18 18 18 18 18 18 18 18 18 18 18 18 18
29 32 31 30 30 29 28 27 26 25 25 24 24 24 22 20 20 20 20 19 19 19 19 19 19 18 18 18 18 18 18 18 18 18 18 18 17 17 17 17 18 18 18 18 18 18 18 18 18
31 32 31 31 31 30 28 28 27 26 26 25 23 22 21 20 20 20 20 20 19 19 19 19 18 18 18 18 18 18 17 17 17 17 17 17 17 17 17 18 18 18 18 18 18 18 18 18 18
32 31 31 31 30 29 29 28 27 28 27 25 24 22 21 21 21 21 21 20 20 19 19 19 18 18 18 18 18 18 18 17 17 17 17 17 17 17 17 17 18 18 18 17 18 17 17 17 18
32 31 31 30 29 29 29 28 28 28 27 25 24 23 22 22 22 21 21 20 20 19 19 19 18 18 18 18 18 18 18 18 18 18 17 17 17 17 17 17 17 17 17 17 18 17 17 17 17
32 31 30 29 29 29 29 28 28 27 26 25 24 23 22 22 22 21 21 20 20 19 19 19 18 18 18 18 18 18 18 18 18 18 18 18 18 18 17 17 17 17 18 18 17 17 17 17 17
31 31 30 30 29 29 29 28 28 27 25 25 24 23 23 23 22 21 21 20 20 19 19 19 18 18 18 18 18 18 18 18 18 18 18 18 18 18 18 17 17 18 18 18 18 17 17 17 17
31 31 31 30 30 29 29 29 29 27 26 25 24 24 23 23 22 22 21 20 20 20 19 19 19 18 18 18 18 18 18 18 18 18 18 18 18 18 18 18 18 18 18 17 17 17 18 17 17
32 32 31 31 30 29 30 29 29 27 26 26 25 24 23 23 22 22 21 20 20 20 19 19 19 19 18 18 18 18 18 18 18 18 18 18 18 18 18 18 18 18 18 18 18 17 17 17 17
32 32 31 31 31 30 30 30 29 27 27 26 25 25 24 23 22 22 21 21 20 20 19 19 19 19 18 18 18 18 18 18 18 18 18 18 18 18 18 18 18 18 18 18 18 18 17 17 17
32 32 31 31 31 31 30 30 29 27 27 27 26 26 25 24 23 22 21 21 20 20 19 19 19 19 18 18 18 18 18 18 18 18 18 18 18 18 18 18 18 18 18 18 18 18 17 17 17
32 32 32 32 31 31 30 30 30 28 28 28 27 26 25 25 24 23 22 21 21 20 20 19 19 19 19 18 18 18 18 18 18 18 18 18 18 18 18 18 18 18 18 18 17 17 17 17 17
32 32 32 31 31 31 31 30 31 30 28 28 28 27 26 25 24 23 22 21 21 20 20 20 20 19 19 19 18 18 18 18 18 18 18 18 18 18 18 18 17 18 18 17 17 17 17 17 17
32 32 32 31 31 31 31 31 30 30 29 28 27 27 27 26 25 23 22 22 21 21 20 20 20 19 19 19 18 18 18 18 18 18 18 18 18 18 18 18 18 18 17 17 17 17 17 17 17
32 32 32 31 31 31 31 31 31 30 29 29 28 28 27 26 25 24 23 22 22 21 21 20 20 20 20 19 19 19 19 19 18 18 18 18 18 17 17 17 17 17 17 17 17 17 17 17 17
32 32 32 31 31 31 31 31 32 30 30 30 29 28 27 27 26 25 24 23 22 21 21 21 20 20 20 20 19 19 19 18 18 18 18 18 18 18 17 17 17 17 17 17 17 17 17 17 17
31 31 31 31 32 30 31 31 31 32 31 31 30 28 28 27 26 25 24 23 22 22 21 21 20 20 20 20 19 19 19 18 18 18 18 18 18 18 17 17 17 17 17 17 17 17 17 17 17
31 31 30 30 30 30 31 31 31 32 31 31 30 29 28 27 26 25 24 23 22 22 22 21 21 20 20 20 20 19 19 19 18 18 18 18 18 18 17 17 17 17 17 17 17 17 17 17 17
31 32 30 29 30 31 30 31 32 32 31 30 29 29 28 27 26 25 24 23 23 22 22 21 21 21 20 20 20 19 19 19 19 19 18 18 18 18 18 17 17 17 17 17 17 17 17 17 17
31 32 33 32 31 30 31 31 32 32 31 30 29 28 28 27 26 25 24 24 23 23 22 22 21 21 21 20 20 20 20 19 19 19 19 18 18 18 18 18 17 17 17 17 17 17 17 17 17
32 32 31 31 29 29 30 31 31 31 31 30 30 29 28 27 26 25 24 24 23 23 22 22 22 21 21 21 20 20 20 20 19 19 19 19 18 18 18 18 17 17 17 17 17 17 17 17 17
30 31 31 31 31 30 30 31 32 31 31 30 30 28 28 27 26 25 24 24 23 23 22 22 21 21 21 21 21 20 20 20 20 19 19 19 19 18 18 18 17 17 17 17 17 17 17 17 16
31 31 31 30 29 30 30 31 32 31 31 30 29 28 27 26 26 25 24 23 23 23 22 22 22 21 21 21 21 20 20 20 20 19 19 19 19 18 18 18 18 17 17 17 17 17 17 16 16
Wind_Speed
12 10 6 4 2 7 13 10 9 8 7 8 8 7 8 9 7 5 4 4 4 5 7 9 9 9 10 11 11 10 11 11 12 12 12 13 14 13 14 14 15 15 15 16 17 17 17 17 16
10 7 5 2 5 10 12 10 11 10 8 7 7 8 9 9 8 6 5 4 4 6 7 10 10 10 10 10 10 10 12 12 13 13 14 14 14 14 15 14 15 15 15 16 17 16 16 16 16
8 6 2 4 11 12 11 10 10 9 7 5 6 7 7 7 6 5 6 5 5 7 8 12 10 10 10 10 10 11 12 12 13 14 14 14 14 14 15 15 15 15 15 16 16 16 16 16 16
5 4 1 8 14 13 11 9 8 8 8 6 6 8 7 7 4 6 7 6 6 7 9 12 9 10 10 10 10 11 11 13 13 14 14 14 15 15 15 15 15 14 14 15 16 15 15 15 15
4 0 6 11 14 11 10 8 6 8 7 7 8 10 9 8 7 8 8 6 7 8 9 11 9 9 10 10 10 10 11 12 13 13 13 14 14 14 14 14 14 14 14 15 15 15 14 14 13
2 1 8 12 12 10 9 6 7 9 9 8 8 9 8 7 8 8 8 7 8 9 9 11 11 9 9 9 10 11 12 12 12 13 13 13 13 13 14 15 15 14 14 14 14 14 13 13 12
2 6 10 11 10 10 8 6 7 8 9 8 6 8 7 8 8 8 8 7 8 8 8 8 9 10 9 9 10 11 11 11 11 12 12 12 13 14 14 13 13 14 14 13 13 13 12 12 11
2 3 10 10 10 10 8 7 8 7 9 7 4 6 9 9 8 9 8 8 8 7 7 7 8 8 8 10 11 11 11 11 11 11 11 11 13 13 12 12 12 13 13 12 12 12 11 11 10
2 5 11 10 10 10 9 9 8 7 9 7 7 9 12 12 10 9 8 8 7 7 6 6 7 7 7 8 10 10 10 9 9 10 10 8 9 10 10 12 12 11 11 11 10 10 9 9 10
1 9 12 9 9 10 9 8 8 8 9 10 11 12 13 11 9 8 8 8 8 7 6 6 5 6 6 6 7 6 6 7 6 7 7 7 8 7 9 11 10 10 10 10 9 7 7 6 7
5 9 9 9 9 10 10 9 7 8 9 9 12 13 12 11 9 8 7 7 7 7 6 6 6 5 5 5 4 4 4 5 5 6 6 6 6 6 6 6 7 7 7 6 8 6 4 4 4
6 7 7 9 9 9 9 9 8 7 10 10 12 13 12 10 9 8 7 7 7 6 6 5 6 5 4 3 4 3 3 3 3 4 4 4 4 4 4 3 4 4 4 4 3 3 4 4 4
6 8 8 8 8 9 9 9 8 9 10 12 13 13 11 9 8 7 7 6 6 6 5 5 4 4 4 3 2 3 3 3 4 4 4 3 3 3 4 3 2 2 3 4 3 3 3 3 3
7 9 9 9 9 8 9 8 7 10 11 13 12 12 11 9 8 8 7 6 6 5 5 5 5 5 4 3 2 2 3 2 3 3 4 3 3 3 3 3 3 2 2 3 3 3 3 2 2
9 9 9 7 7 7 7 7 7 11 12 12 12 11 10 9 8 7 7 6 6 6 5 5 5 5 4 3 2 2 2 3 3 3 3 3 3 3 2 2 3 3 3 3 3 3 3 2 3
7 6 5 7 6 6 6 5 10 12 13 12 11 10 10 9 8 7 7 6 6 5 6 5 4 6 5 3 2 2 3 4 3 2 3 3 3 2 1 2 2 3 3 3 3 2 2 2 2
7 4 3 7 7 5 6 3 10 12 13 12 11 11 10 10 9 9 8 7 7 6 6 6 5 5 5 4 3 2 3 3 3 2 2 2 2 2 1 2 2 2 2 2 2 3 2 3 2
4 3 3 3 6 7 6 3 9 12 12 12 12 11 11 10 10 9 9 8 7 7 7 7 6 6 5 4 4 2 2 2 2 2 2 1 2 2 1 2 2 2 2 2 2 2 2 2 2
3 3 3 2 3 6 7 6 7 12 13 12 12 12 11 11 10 10 9 9 9 8 8 8 7 7 6 4 4 3 3 2 2 2 2 1 1 2 1 1 2 2 2 2 2 3 4 3 3
6 5 3 3 3 4 5 6 7 11 13 13 12 12 12 11 11 11 10 10 10 10 10 9 9 8 7 5 3 2 2 2 2 1 2 1 2 1 2 2 1 2 2 3 2 3 2 2 3
8 6 4 2 3 5 4 5 7 9 11 12 12 12 12 12 12 13 12 11 11 11 11 9 9 9 8 7 5 4 3 3 3 3 2 2 1 1 1 1 0 1 2 2 3 3 3 3 2
9 6 5 5 6 3 4 3 4 8 11 13 13 13 13 13 13 13 13 13 12 12 11 10 10 9 9 8 6 5 4 2 2 2 2 2 1 1 1 1 1 1 1 1 3 2 2 3 2
6 5 6 7 7 6 5 6 2 6 8 10 12 13 13 13 13 13 13 13 12 11 11 11 10 10 9 8 7 6 4 3 3 3 3 1 1 1 1 1 0 1 1 1 1 1 3 3 2
7 7 6 8 8 8 5 6 2 3 5 7 10 12 13 13 13 13 13 13 12 11 11 11 11 10 10 9 8 7 5 4 3 3 3 2 2 1 1 1 0 1 1 1 2 2 2 2 2
11 10 8 8 8 6 3 5 3 0 2 5 7 10 12 12 13 13 14 14 13 13 12 12 12 11 10 10 9 8 6 6 5 4 4 3 2 2 1 0 0 0 0 0 1 1 2 2 2
14 14 11 8 7 5 5 5 2 1 2 4 5 7 10 12 13 13 14 14 14 14 13 13 12 11 11 10 8 7 7 6 5 5 3 3 1 1 2 1 1 0 1 1 1 1 1 1 2
13 14 11 10 9 8 6 5 5 3 4 5 6 7 9 11 12 13 14 14 14 14 13 13 12 11 11 10 9 8 7 5 4 4 4 3 2 2 3 2 2 1 1 1 1 1 1 1 2
9 11 9 11 9 10 8 9 5 5 4 5 6 7 8 9 11 12 13 13 13 13 12 12 12 11 11 10 9 8 7 6 5 4 4 2 2 1 2 2 2 1 1 1 1 1 0 1 1
10 12 11 10 10 10 8 5 2 4 4 5 6 7 8 9 11 11 11 12 12 12 12 12 12 11 11 10 9 8 7 7 6 5 5 4 3 3 2 2 2 1 1 1 1 1 1 1 1
12 13 13 12 10 10 11 5 4 2 3 3 4 5 7 8 9 10 11 11 11 12 12 12 12 11 11 10 9 8 7 7 7 6 5 5 4 3 3 3 2 2 1 1 1 1 1 1 1
Wind_Direction
170 174 199 229 181 74 64 61 59 69 67 63 63 54 54 45 36 70 87 90 79 84 90 94 84 85 82 82 81 79 79 83 87 94 98 101 102 105 111 112 113 113 113 113 113 113 114 115 115
171 180 219 242 58 71 68 63 67 67 81 86 73 64 63 60 57 92 111 99 93 88 89 86 84 85 82 82 82 79 81 84 87 91 96 100 102 105 109 111 111 110 110 111 113 113 113 115 115
174 216 270 55 57 61 72 73 82 87 84 79 77 60 52 59 70 94 105 111 100 90 93 89 81 83 82 81 82 81 82 86 88 92 95 99 100 102 104 108 111 110 111 111 112 113 113 114 115
195 213 147 66 69 64 74 85 94 96 85 74 88 82 68 57 70 101 114 116 108 102 97 93 83 82 81 80 81 81 83 86 89 92 95 96 99 100 102 106 109 110 111 112 113 113 114 115 115
235 256 80 74 73 74 77 83 81 79 78 81 85 91 79 69 86 103 113 113 106 103 100 97 88 81 80 81 83 85 86 88 92 94 94 96 98 101 101 102 107 110 108 109 112 112 113 115 116
234 60 66 74 79 83 85 85 85 85 90 92 94 95 84 99 105 108 109 103 100 100 100 102 101 88 80 80 88 88 89 91 93 94 94 95 99 100 101 103 106 112 112 110 111 112 112 112 116
4 57 69 79 88 88 84 86 82 91 94 87 92 97 108 114 115 116 109 101 96 96 96 99 109 107 98 86 90 90 88 90 94 94 95 96 98 100 101 102 109 115 116 113 111 111 111 114 118
336 75 78 78 83 88 100 95 87 89 91 96 93 102 123 128 128 121 115 108 103 100 97 99 97 97 106 106 97 92 88 88 95 99 101 106 108 107 108 110 109 119 117 115 112 112 111 115 119
266 72 71 71 80 99 118 112 96 95 104 95 84 95 118 130 133 129 123 115 107 101 100 97 99 101 99 100 105 108 104 98 107 110 112 118 109 108 112 98 105 110 113 113 113 114 119 127 132
41 69 71 69 82 109 121 112 113 117 110 108 106 108 123 135 138 134 129 125 118 114 110 102 95 95 98 98 103 101 100 97 92 88 94 100 99 98 101 104 106 107 113 118 118 126 149 180 146
68 74 87 92 98 113 119 116 117 116 112 119 129 134 140 140 140 135 127 122 118 122 114 112 105 104 102 102 102 95 96 95 93 86 89 95 106 113 113 117 123 124 131 130 131 153 148 127 108
94 86 96 105 114 120 116 116 113 97 99 121 133 139 144 147 142 137 133 129 127 124 120 116 116 111 97 86 98 109 106 99 88 88 86 101 108 108 111 112 109 123 125 119 129 120 108 107 115
112 103 106 115 122 120 122 116 109 108 115 129 136 144 150 151 145 140 135 134 135 138 136 129 123 121 124 115 90 91 81 84 94 88 84 89 113 112 107 101 110 115 117 132 125 113 106 108 116
116 118 118 125 125 134 130 126 127 125 135 140 149 155 158 157 154 151 154 154 153 152 145 137 142 137 138 130 111 87 86 84 70 81 79 83 102 109 118 131 124 118 115 104 111 118 114 107 91
137 133 132 139 146 149 152 140 139 143 150 153 159 164 166 169 169 170 168 170 167 164 157 154 152 146 147 139 138 116 100 90 78 77 86 95 109 115 133 126 135 128 125 124 130 124 128 131 123
170 174 150 150 168 170 217 125 148 159 165 166 169 172 179 181 185 183 180 182 179 173 166 174 167 150 150 143 129 104 87 85 87 85 91 95 98 123 137 122 119 126 144 142 141 149 127 122 118
194 194 149 151 182 185 223 132 152 170 176 176 179 182 186 186 193 191 189 188 188 185 179 177 172 163 154 147 146 129 104 92 104 97 81 97 119 140 153 119 107 147 149 152 164 126 139 128 121
193 198 185 168 177 207 222 187 160 181 188 186 185 188 190 194 194 191 192 189 188 187 186 183 180 175 169 161 157 151 131 128 117 104 88 106 140 139 154 150 131 162 148 146 127 133 142 138 140
221 227 217 168 167 217 229 224 188 186 196 196 193 193 195 197 191 189 191 191 188 187 186 186 186 178 179 175 179 164 155 152 135 124 97 108 126 133 172 129 137 178 149 150 159 157 156 155 142
223 232 220 163 167 231 240 236 211 196 204 205 201 199 199 195 190 191 194 193 191 189 188 186 187 185 186 178 176 164 145 162 149 123 111 123 133 171 165 151 180 150 156 166 171 179 191 180 185
222 234 239 219 185 214 250 216 201 199 209 210 211 208 204 200 196 194 196 197 194 192 192 191 188 183 187 180 180 168 171 189 161 149 138 124 121 147 103 157 176 177 202 166 188 199 206 209 214
222 225 233 217 223 218 244 271 176 191 204 210 211 209 206 202 200 197 195 196 197 194 191 189 185 184 183 186 191 190 198 184 145 150 129 132 127 117 133 158 169 242 234 171 221 197 232 228 227
222 196 215 227 245 257 230 271 163 172 204 207 207 207 205 200 199 198 197 195 196 194 188 185 183 184 185 190 190 199 208 188 160 156 141 159 131 122 100 100 119 256 257 209 256 233 253 244 253
173 178 197 226 241 246 251 268 262 184 212 199 196 202 201 198 196 197 197 192 192 191 187 183 181 185 187 190 192 199 198 196 178 179 167 177 165 167 147 164 328 275 303 225 237 248 238 262 272
199 207 215 221 225 237 210 257 279 34 199 202 194 194 196 197 195 193 192 191 191 191 189 185 183 186 188 191 192 194 194 195 194 195 186 195 179 170 159 169 208 326 7 272 261 242 273 263 254
213 224 231 238 241 230 197 246 263 102 166 187 192 193 191 192 193 192 191 192 191 191 189 188 186 187 188 189 188 188 191 198 194 192 199 189 178 157 149 164 171 201 267 279 263 263 242 238 248
210 225 243 247 253 254 238 240 238 204 203 189 183 182 186 189 189 189 189 191 190 189 188 189 186 187 188 186 183 186 190 198 188 181 194 185 177 174 171 187 189 201 250 293 269 278 276 222 227
237 221 223 238 241 247 238 237 239 212 206 186 185 182 179 180 183 184 185 187 186 186 185 186 185 186 185 184 186 183 184 185 185 191 181 170 164 164 178 185 186 201 226 242 265 237 173 243 237
199 211 224 235 245 250 248 238 213 219 210 193 184 180 178 177 177 178 180 183 181 180 181 182 183 184 184 184 183 183 181 181 183 185 185 179 175 170 182 198 201 210 224 248 247 261 229 227 221
217 219 216 225 231 242 259 250 116 155 190 180 170 166 170 173 171 171 174 176 179 181 182 183 183 184 184 181 180 182 183 183 185 184 183 177 177 182 185 195 201 210 198 221 232 239 226 217 209
Height
1492 1492 1492 1494 1487 1488 1497 1496 1494 1497 1500 1504 1504 1503 1504 1506 1508 1517 1519 1516 1515 1514 1514 1513 1512 1512 1513 1512 1512 1512 1511 1510 1509 1509 1510 1511 1513 1514 1516 1518 1519 1521 1522 1523 1525 1526 1528 1529 1531
1493 1493 1495 1491 1486 1498 1503 1497 1499 1502 1505 1506 1507 1507 1507 1511 1514 1517 1517 1517 1517 1517 1517 1516 1515 1515 1515 1515 1515 1514 1513 1512 1511 1511 1512 1513 1515 1516 1518 1520 1522 1523 1525 1526 1527 1528 1530 1531 1533
1494 1495 1494 1486 1491 1499 1504 1500 1502 1505 1507 1507 1508 1510 1511 1515 1517 1518 1519 1519 1519 1519 1519 1518 1517 1517 1517 1517 1517 1516 1516 1515 1514 1514 1515 1516 1517 1519 1520 1522 1524 1525 1527 1528 1529 1530 1532 1534 1535
1496 1496 1492 1489 1497 1498 1499 1501 1504 1505 1508 1509 1509 1512 1516 1520 1520 1520 1520 1521 1522 1522 1522 1521 1520 1520 1519 1519 1519 1519 1518 1517 1517 1518 1518 1519 1520 1522 1523 1525 1526 1528 1529 1530 1532 1533 1535 1536 1538
1497 1492 1488 1494 1499 1500 1500 1504 1505 1505 1508 1510 1511 1514 1519 1522 1522 1522 1522 1523 1524 1524 1525 1524 1522 1522 1522 1521 1521 1521 1520 1520 1520 1521 1522 1523 1524 1525 1526 1527 1529 1531 1532 1533 1534 1536 1537 1539 1540
1494 1487 1491 1500 1502 1501 1503 1506 1506 1508 1511 1513 1514 1516 1522 1524 1524 1524 1525 1526 1526 1526 1527 1526 1524 1524 1524 1523 1523 1524 1523 1523 1524 1524 1525 1526 1527 1528 1529 1530 1531 1533 1534 1535 1537 1538 1539 1541 1542
1493 1487 1493 1496 1501 1503 1506 1508 1507 1509 1512 1515 1516 1517 1523 1525 1526 1526 1527 1527 1528 1529 1529 1529 1529 1527 1526 1526 1526 1526 1526 1526 1527 1528 1528 1529 1530 1531 1532 1533 1534 1536 1537 1538 1539 1540 1542 1543 1544
1494 1487 1491 1494 1499 1504 1507 1509 1511 1511 1515 1518 1518 1518 1522 1526 1527 1528 1529 1529 1530 1530 1531 1531 1531 1531 1531 1530 1529 1529 1529 1530 1530 1531 1531 1532 1534 1535 1535 1536 1537 1538 1540 1541 1542 1543 1544 1545 1547
1494 1489 1494 1495 1497 1503 1507 1509 1513 1515 1517 1519 1520 1521 1524 1527 1528 1529 1531 1532 1532 1532 1533 1533 1533 1533 1534 1534 1533 1533 1532 1533 1533 1534 1535 1536 1538 1539 1539 1539 1540 1541 1542 1543 1544 1546 1547 1548 1549
1492 1491 1496 1496 1497 1502 1508 1509 1513 1514 1517 1520 1523 1525 1527 1529 1530 1531 1532 1533 1534 1534 1535 1535 1536 1536 1536 1536 1536 1536 1537 1536 1536 1537 1538 1539 1540 1541 1542 1541 1542 1543 1544 1546 1546 1548 1549 1550 1552
1493 1494 1496 1499 1501 1504 1507 1511 1513 1513 1515 1519 1523 1526 1528 1530 1531 1533 1534 1535 1536 1536 1537 1537 1537 1537 1538 1538 1539 1539 1539 1539 1540 1540 1540 1541 1542 1543 1544 1544 1544 1545 1547 1548 1549 1550 1552 1553 1553
1496 1498 1499 1501 1504 1506 1508 1511 1513 1514 1518 1522 1524 1527 1529 1531 1532 1534 1535 1536 1537 1538 1539 1539 1540 1539 1539 1540 1541 1541 1542 1542 1542 1542 1543 1543 1543 1544 1545 1545 1546 1547 1548 1549 1551 1552 1553 1553 1554
1497 1499 1502 1504 1506 1508 1510 1512 1514 1517 1521 1523 1526 1529 1530 1532 1534 1535 1536 1538 1539 1539 1540 1541 1541 1541 1541 1541 1542 1544 1544 1544 1545 1544 1544 1545 1545 1546 1547 1547 1548 1549 1550 1551 1551 1552 1553 1554 1555
1498 1501 1503 1505 1507 1510 1510 1513 1515 1519 1522 1525 1527 1529 1531 1533 1534 1536 1538 1539 1540 1541 1542 1542 1542 1543 1543 1543 1544 1545 1546 1545 1546 1546 1546 1546 1547 1547 1548 1549 1549 1550 1551 1552 1552 1553 1553 1554 1555
1500 1500 1503 1505 1507 1509 1510 1512 1514 1519 1522 1525 1527 1530 1532 1533 1535 1537 1538 1539 1541 1541 1542 1543 1544 1544 1544 1545 1546 1547 1547 1547 1547 1548 1547 1548 1549 1549 1549 1550 1550 1551 1552 1552 1553 1553 1554 1555 1555
1497 1497 1501 1504 1505 1508 1509 1511 1513 1518 1521 1524 1526 1529 1531 1533 1535 1537 1538 1539 1541 1542 1542 1543 1545 1545 1545 1546 1546 1547 1548 1548 1548 1549 1549 1549 1549 1550 1550 1551 1552 1552 1553 1553 1553 1554 1554 1555 1555
1495 1498 1500 1502 1503 1504 1505 1506 1511 1516 1519 1521 1525 1527 1530 1532 1534 1536 1538 1539 1540 1541 1542 1543 1545 1546 1546 1546 1547 1548 1548 1549 1549 1550 1550 1550 1550 1550 1551 1551 1551 1552 1553 1553 1554 1554 1555 1555 1555
1498 1496 1499 1500 1499 1502 1503 1503 1508 1514 1516 1518 1522 1525 1528 1530 1533 1535 1537 1538 1539 1540 1542 1543 1544 1545 1546 1547 1547 1548 1549 1549 1550 1550 1550 1550 1550 1551 1551 1552 1552 1552 1553 1553 1553 1554 1554 1555 1555
1490 1494 1497 1497 1497 1500 1502 1502 1504 1510 1513 1515 1518 1522 1525 1528 1531 1533 1535 1536 1538 1539 1540 1542 1543 1544 1545 1547 1548 1549 1550 1550 1550 1550 1550 1550 1551 1551 1551 1552 1552 1552 1553 1553 1554 1554 1554 1555 1555
1491 1495 1496 1496 1498 1499 1499 1500 1499 1505 1509 1511 1515 1518 1522 1525 1528 1531 1533 1535 1536 1538 1539 1541 1542 1544 1545 1546 1547 1548 1549 1550 1550 1551 1550 1551 1551 1551 1552 1551 1552 1552 1552 1552 1553 1553 1554 1555 1555
1492 1494 1494 1497 1498 1497 1498 1500 1498 1500 1505 1509 1512 1515 1518 1521 1525 1528 1530 1532 1534 1536 1537 1540 1541 1542 1544 1545 1547 1548 1548 1549 1550 1551 1551 1551 1551 1551 1551 1551 1552 1552 1553 1553 1552 1553 1553 1554 1554
1493 1489 1491 1495 1499 1497 1498 1504 1496 1496 1500 1504 1507 1511 1514 1518 1521 1524 1527 1530 1532 1534 1536 1538 1539 1541 1543 1544 1546 1547 1549 1550 1550 1550 1551 1551 1551 1551 1551 1551 1551 1551 1553 1552 1552 1553 1553 1553 1553
1488 1488 1491 1493 1495 1496 1496 1500 1494 1492 1497 1498 1502 1506 1510 1514 1518 1521 1524 1527 1530 1532 1534 1536 1537 1539 1541 1543 1544 1546 1548 1549 1550 1550 1550 1550 1550 1550 1551 1551 1551 1551 1551 1551 1551 1551 1551 1552 1552
1488 1491 1493 1492 1492 1507 1498 1501 1498 1488 1491 1492 1497 1502 1506 1510 1514 1518 1522 1525 1527 1530 1532 1534 1535 1537 1539 1541 1543 1544 1546 1547 1548 1549 1550 1550 1551 1551 1551 1551 1550 1550 1551 1550 1550 1550 1550 1551 1551
1488 1494 1505 1508 1507 1505 1493 1499 1494 1484 1486 1490 1494 1498 1503 1507 1511 1515 1518 1521 1524 1527 1529 1532 1534 1536 1538 1540 1542 1543 1545 1546 1547 1548 1549 1550 1551 1551 1550 1551 1550 1550 1550 1549 1550 1549 1549 1550 1549
1484 1485 1502 1514 1511 1499 1496 1497 1486 1482 1486 1490 1493 1496 1499 1503 1507 1511 1515 1518 1521 1524 1527 1529 1532 1534 1536 1538 1540 1542 1543 1545 1546 1547 1548 1549 1549 1550 1550 1550 1549 1549 1549 1549 1549 1549 1548 1548 1548
1483 1483 1477 1488 1494 1501 1494 1489 1482 1481 1485 1488 1491 1494 1497 1500 1504 1508 1511 1515 1518 1522 1525 1527 1530 1532 1534 1536 1538 1540 1542 1543 1545 1545 1546 1547 1547 1548 1548 1548 1548 1548 1548 1548 1548 1548 1547 1547 1547
1477 1476 1483 1489 1506 1509 1499 1493 1487 1482 1483 1485 1488 1491 1495 1498 1502 1505 1509 1512 1516 1519 1522 1525 1528 1530 1532 1535 1537 1539 1540 1542 1543 1544 1545 1545 1546 1546 1547 1547 1547 1547 1547 1547 1547 1547 1546 1546 1546
1483 1482 1482 1484 1487 1502 1505 1493 1474 1478 1480 1483 1486 1490 1493 1496 1499 1503 1507 1510 1514 1517 1520 1523 1525 1528 1531 1533 1535 1538 1539 1541 1542 1543 1544 1544 1545 1546 1546 1546 1546 1546 1546 1546 1546 1546 1545 1545 1545
1474 1476 1480 1491 1495 1491 1493 1488 1472 1476 1479 1483 1486 1489 1492 1495 1498 1502 1505 1508 1511 1515 1518 1521 1524 1527 1529 1532 1534 1536 1538 1539 1540 1541 1542 1543 1544 1545 1545 1545 1545 1545 1545 1544 1544 1544 1544 1543 1543